Weather History for KBIX - September, 2012

Change the Weather History Date:

Thursday, September 27, 2012

  Actual Average Record
Temperature  
Mean Temperature 78 °F -  
Max Temperature 86 °F 84 °F 93 °F (2005)
Min Temperature 70 °F 67 °F 52 °F (1975)
Cooling Degree Days 13    
Growing Degree Days 28 (Base 50)    
Moisture  
Dew Point 68 °F    
Average Humidity 69    
Maximum Humidity 85    
Minimum Humidity 55    
Precipitation  
Precipitation 0.00 in - - ()
Sea Level Pressure  
Sea Level Pressure 30.11 in    
Wind  
Wind Speed 6 mph (East)    
Max Wind Speed 12 mph    
Max Gust Speed -    
Visibility 9 miles    
Events      
Averages and records for this station are not official NWS values.
T = Trace of Precipitation, MM = Missing Value Source: NWS Daily Summary

Daily Weather History Graph

Daily Weather History Graph

Search for Another Location

Airport or City:

Trip Planner

Search our weather history database for the weather conditions in past years. The results will help you decide how hot, cold, wet, or windy it might be!

Date:

Astronomy

Sep. 27, 2012 Rise Set
Actual Time 6:47 AM CDT 6:45 PM CDT
Civil Twilight 6:23 AM CDT 7:09 PM CDT
Nautical Twilight 5:55 AM CDT 7:37 PM CDT
Astronomical Twilight 5:27 AM CDT 8:05 PM CDT
Moon 5:11 PM CDT (9/27) 4:23 AM CDT (9/27)
Length of Visible Light 12h 46m
Length of Day
11h 58m
Waxing Gibbous, 94% of the Moon is Illuminated
Sep 27
Waxing Gibbous
Sep 29
Full
Oct 8
Last Quarter
Oct 15
New
Oct 21
First Quarter

Hourly Weather History & Observations

Time (CDT) Temp. Heat Index Dew Point Humidity Pressure Visibility Wind Dir Wind Speed Gust Speed Precip Events Conditions
12:55 AM 74.1 °F - 67.3 °F 79% 30.11 in 10.0 mi NE 4.6 mph - N/A   Partly Cloudy
1:02 AM 73.4 °F - 68.0 °F 83% 30.10 in 10.0 mi NE 5.8 mph - N/A   Mostly Cloudy
1:05 AM 73.4 °F - 68.0 °F 83% 30.10 in 10.0 mi NE 5.8 mph - N/A   Mostly Cloudy
1:11 AM 73.4 °F - 68.0 °F 83% 30.10 in 10.0 mi ENE 4.6 mph - N/A   Mostly Cloudy
1:55 AM 73.0 °F - 66.6 °F 80% 30.10 in 10.0 mi NE 4.6 mph - N/A   Overcast
2:13 AM 73.4 °F - 66.2 °F 78% 30.09 in 10.0 mi ENE 5.8 mph - N/A   Mostly Cloudy
2:55 AM 73.2 °F - 66.9 °F 81% 30.09 in 10.0 mi East 3.5 mph - N/A   Partly Cloudy
3:55 AM 72.5 °F - 66.4 °F 81% 30.08 in 10.0 mi NE 3.5 mph - N/A   Partly Cloudy
4:55 AM 71.1 °F - 65.3 °F 82% 30.10 in 10.0 mi NE 4.6 mph - N/A   Partly Cloudy
5:55 AM 70.3 °F - 64.9 °F 83% 30.12 in 10.0 mi NE 5.8 mph - N/A   Clear
6:55 AM 70.0 °F - 64.9 °F 84% 30.12 in 10.0 mi ENE 4.6 mph - N/A   Clear
7:55 AM 72.9 °F - 68.2 °F 85% 30.13 in 10.0 mi East 5.8 mph - N/A   Clear
8:55 AM 76.6 °F - 67.8 °F 74% 30.14 in 10.0 mi East 8.1 mph - N/A   Clear
9:55 AM 80.8 °F 83.5 °F 68.2 °F 65% 30.15 in 10.0 mi ENE 6.9 mph - N/A   Partly Cloudy
10:26 AM 82.4 °F 85.4 °F 68.0 °F 62% 30.15 in 2.5 mi East 6.9 mph - N/A   Haze
10:31 AM 82.4 °F 85.4 °F 68.0 °F 62% 30.15 in 3.0 mi ENE 8.1 mph - N/A   Haze
10:32 AM 82.4 °F 85.4 °F 68.0 °F 62% 30.15 in 2.5 mi ENE 8.1 mph - N/A   Haze
10:33 AM 84.2 °F 87.3 °F 68.0 °F 58% 30.15 in 7.0 mi ENE 9.2 mph - N/A   Clear
10:55 AM 84.2 °F 87.3 °F 68.0 °F 58% 30.15 in 7.0 mi East 6.9 mph - N/A   Scattered Clouds
11:28 AM 82.4 °F 84.6 °F 66.2 °F 58% 30.14 in 10.0 mi Variable 5.8 mph - N/A   Mostly Cloudy
11:47 AM 84.2 °F 87.3 °F 68.0 °F 58% 30.14 in 10.0 mi SSE 11.5 mph - N/A   Mostly Cloudy
11:55 AM 85.6 °F 89.1 °F 68.4 °F 56% 30.13 in 10.0 mi South 10.4 mph - N/A   Scattered Clouds
12:05 PM 86.0 °F 89.4 °F 68.0 °F 55% 30.14 in 10.0 mi SSE 9.2 mph - N/A   Overcast
12:55 PM 85.1 °F 88.5 °F 68.4 °F 57% 30.13 in 10.0 mi South 9.2 mph - N/A   Clear
1:55 PM 84.9 °F 89.1 °F 69.4 °F 60% 30.10 in 10.0 mi SSE 11.5 mph - N/A   Clear
2:55 PM 84.6 °F 87.9 °F 68.2 °F 58% 30.09 in 10.0 mi SSE 9.2 mph - N/A   Clear
3:55 PM 84.2 °F 87.6 °F 68.4 °F 59% 30.06 in 10.0 mi South 9.2 mph - N/A   Clear
4:55 PM 84.0 °F 86.5 °F 66.7 °F 56% 30.05 in 10.0 mi SSE 5.8 mph - N/A   Clear
5:55 PM 82.4 °F 85.6 °F 68.5 °F 63% 30.06 in 10.0 mi SSE 8.1 mph - N/A   Clear
6:55 PM 80.2 °F 83.0 °F 68.2 °F 67% 30.06 in 10.0 mi SSE 5.8 mph - N/A   Clear
7:55 PM 79.5 °F - 68.4 °F 69% 30.07 in 10.0 mi South 4.6 mph - N/A   Clear
8:55 PM 79.7 °F - 67.8 °F 67% 30.08 in 10.0 mi South 4.6 mph - N/A   Clear
9:55 PM 79.0 °F - 68.2 °F 69% 30.09 in 10.0 mi South 4.6 mph - N/A   Clear
10:55 PM 77.7 °F - 67.8 °F 71% 30.09 in 10.0 mi Calm Calm - N/A   Clear
11:55 PM 74.5 °F - 68.4 °F 81% 30.08 in 10.0 mi NNE 3.5 mph - N/A   Clear